Location: Newark
(29.9790°N, 31.1340°E)
Time: 17:04:53
(UTC+00:00)

Transit 2A Rocket - Pass Details

Date: 24 January 2020
Orbit: 591 x 912 km, 66.7° (Epoch: 22 February)

Event Time Altitude Azimuth Distance (km) Brightness Sun altitude
Rises 13:35:52 0° 321° (NW) 3,120 8.2 19.7°
Reaches altitude 10° 13:38:22 10° 310° (NW) 2,250 7.7 19.3°
Maximum altitude 13:42:49 30° 250° (WSW) 1,379 8.1 18.5°
Drops below altitude 10° 13:47:37 10° 191° (S) 2,425 8.4 17.7°
Sets 13:50:25 0° 181° (S) 3,403 8.9 17.2°
